Time,TemperatureF,DewpointF,PressureIn,WindDirection,WindDirectionDegrees,WindSpeedMPH,WindSpeedGustMPH,Humidity,HourlyPrecipIn,Conditions,Clouds,dailyrainin,SoftwareType,DateUTC
2013-08-30 00:08:00,73.3,68.0,30.07,ENE,62,0.0,-999.0,84,-99.99,,,0.00,weatherlink.com 1.10,2013-08-30 04:08:00,
2013-08-30 00:24:00,73.2,68.0,30.07,ENE,62,0.0,-999.0,84,-99.99,,,0.00,weatherlink.com 1.10,2013-08-30 04:24:00,
2013-08-30 00:39:00,73.0,68.0,30.07,ENE,62,0.0,-999.0,84,-99.99,,,0.00,weatherlink.com 1.10,2013-08-30 04:39:00,
2013-08-30 00:54:00,72.9,68.0,30.07,ENE,62,0.0,-999.0,84,-99.99,,,0.00,weatherlink.com 1.10,2013-08-30 04:54:00,
2013-08-30 01:09:00,72.7,68.0,30.07,ENE,62,0.0,-999.0,84,-99.99,,,0.00,weatherlink.com 1.10,2013-08-30 05:09:00,
2013-08-30 01:24:00,72.6,68.0,30.07,ENE,62,0.0,-999.0,84,-99.99,,,0.00,weatherlink.com 1.10,2013-08-30 05:24:00,
2013-08-30 01:39:00,72.4,67.0,30.07,ENE,62,0.0,-999.0,84,-99.99,,,0.00,weatherlink.com 1.10,2013-08-30 05:39:00,
2013-08-30 01:54:00,72.1,67.0,30.07,ENE,62,0.0,-999.0,84,-99.99,,,0.00,weatherlink.com 1.10,2013-08-30 05:54:00,
2013-08-30 02:09:00,71.8,67.0,30.07,ENE,62,0.0,-999.0,84,-99.99,,,0.00,weatherlink.com 1.10,2013-08-30 06:09:00,
2013-08-30 02:24:00,71.7,67.0,30.07,ENE,62,0.0,-999.0,84,-99.99,,,0.00,weatherlink.com 1.10,2013-08-30 06:24:00,
2013-08-30 02:39:00,71.7,67.0,30.07,ENE,62,0.0,-999.0,84,-99.99,,,0.00,weatherlink.com 1.10,2013-08-30 06:39:00,
2013-08-30 02:54:00,71.5,67.0,30.07,ENE,62,0.0,-999.0,84,-99.99,,,0.00,weatherlink.com 1.10,2013-08-30 06:54:00,
2013-08-30 03:09:00,71.4,66.0,30.07,ENE,62,0.0,-999.0,84,-99.99,,,0.00,weatherlink.com 1.10,2013-08-30 07:09:00,
2013-08-30 03:25:00,71.3,66.0,30.07,ENE,62,0.0,-999.0,84,-99.99,,,0.00,weatherlink.com 1.10,2013-08-30 07:25:00,
2013-08-30 03:40:00,71.2,66.0,30.07,ENE,62,0.0,-999.0,84,-99.99,,,0.00,weatherlink.com 1.10,2013-08-30 07:40:00,
2013-08-30 03:55:00,71.1,66.0,30.07,ENE,62,0.0,-999.0,84,-99.99,,,0.00,weatherlink.com 1.10,2013-08-30 07:55:00,
2013-08-30 04:10:00,71.1,66.0,30.07,ENE,62,0.0,-999.0,84,-99.99,,,0.00,weatherlink.com 1.10,2013-08-30 08:10:00,
2013-08-30 04:25:00,71.0,66.0,30.07,ENE,62,0.0,-999.0,85,-99.99,,,0.00,weatherlink.com 1.10,2013-08-30 08:25:00,
2013-08-30 04:40:00,70.8,66.0,30.07,ENE,62,0.0,-999.0,85,-99.99,,,0.00,weatherlink.com 1.10,2013-08-30 08:40:00,
2013-08-30 04:55:00,70.7,66.0,30.07,ENE,62,0.0,-999.0,85,-99.99,,,0.00,weatherlink.com 1.10,2013-08-30 08:55:00,
2013-08-30 05:10:00,70.6,66.0,30.08,ENE,62,0.0,-999.0,85,-99.99,,,0.00,weatherlink.com 1.10,2013-08-30 09:10:00,
2013-08-30 05:25:00,70.5,66.0,30.08,ENE,62,0.0,-999.0,85,-99.99,,,0.00,weatherlink.com 1.10,2013-08-30 09:25:00,
2013-08-30 05:40:00,70.3,66.0,30.08,ENE,63,0.0,-999.0,85,-99.99,,,0.00,weatherlink.com 1.10,2013-08-30 09:40:00,
2013-08-30 05:55:00,70.2,66.0,30.09,ENE,63,0.0,-999.0,85,-99.99,,,0.00,weatherlink.com 1.10,2013-08-30 09:55:00,
2013-08-30 06:10:00,70.2,66.0,30.09,ENE,63,0.0,-999.0,85,-99.99,,,0.00,weatherlink.com 1.10,2013-08-30 10:10:00,
2013-08-30 06:27:00,70.1,65.0,30.09,ENE,63,0.0,-999.0,85,-99.99,,,0.00,weatherlink.com 1.10,2013-08-30 10:27:00,
2013-08-30 06:41:00,70.0,65.0,30.10,ENE,63,0.0,-999.0,85,-99.99,,,0.00,weatherlink.com 1.10,2013-08-30 10:41:00,
2013-08-30 06:56:00,69.9,65.0,30.10,ENE,63,0.0,-999.0,85,-99.99,,,0.00,weatherlink.com 1.10,2013-08-30 10:56:00,
2013-08-30 07:11:00,69.9,65.0,30.11,ENE,63,0.0,-999.0,85,-99.99,,,0.00,weatherlink.com 1.10,2013-08-30 11:11:00,
2013-08-30 07:26:00,70.0,65.0,30.10,ENE,63,0.0,-999.0,85,-99.99,,,0.00,weatherlink.com 1.10,2013-08-30 11:26:00,
2013-08-30 07:41:00,70.1,65.0,30.11,ENE,63,0.0,-999.0,85,-99.99,,,0.00,weatherlink.com 1.10,2013-08-30 11:41:00,
2013-08-30 07:56:00,70.3,66.0,30.11,ENE,63,0.0,-999.0,85,-99.99,,,0.00,weatherlink.com 1.10,2013-08-30 11:56:00,
2013-08-30 08:11:00,70.4,66.0,30.12,ENE,63,0.0,-999.0,85,-99.99,,,0.00,weatherlink.com 1.10,2013-08-30 12:11:00,
2013-08-30 08:26:00,70.5,66.0,30.12,ENE,63,0.0,-999.0,85,-99.99,,,0.00,weatherlink.com 1.10,2013-08-30 12:26:00,
2013-08-30 08:41:00,70.7,66.0,30.12,ENE,63,0.0,-999.0,85,-99.99,,,0.00,weatherlink.com 1.10,2013-08-30 12:41:00,
2013-08-30 08:57:00,70.8,66.0,30.12,ENE,63,0.0,-999.0,85,-99.99,,,0.00,weatherlink.com 1.10,2013-08-30 12:57:00,
2013-08-30 09:12:00,71.0,66.0,30.13,ENE,63,0.0,-999.0,84,-99.99,,,0.00,weatherlink.com 1.10,2013-08-30 13:12:00,
2013-08-30 09:27:00,71.5,67.0,30.13,ENE,63,0.0,-999.0,84,-99.99,,,0.00,weatherlink.com 1.10,2013-08-30 13:27:00,
2013-08-30 09:42:00,72.2,67.0,30.12,ENE,58,0.0,-999.0,83,-99.99,,,0.00,weatherlink.com 1.10,2013-08-30 13:42:00,
2013-08-30 09:57:00,73.1,67.0,30.13,ENE,58,0.0,-999.0,80,-99.99,,,0.00,weatherlink.com 1.10,2013-08-30 13:57:00,
2013-08-30 10:12:00,73.4,66.0,30.13,ENE,60,0.0,-999.0,77,-99.99,,,0.00,weatherlink.com 1.10,2013-08-30 14:12:00,
2013-08-30 10:27:00,74.5,66.0,30.13,ENE,63,0.0,-999.0,75,-99.99,,,0.00,weatherlink.com 1.10,2013-08-30 14:27:00,
2013-08-30 10:42:00,74.5,66.0,30.12,ENE,63,0.0,-999.0,74,-99.99,,,0.00,weatherlink.com 1.10,2013-08-30 14:42:00,
2013-08-30 10:57:00,75.1,66.0,30.12,ENE,60,0.0,-999.0,73,-99.99,,,0.00,weatherlink.com 1.10,2013-08-30 14:57:00,
2013-08-30 11:12:00,76.2,66.0,30.12,ENE,65,0.0,-999.0,70,-99.99,,,0.00,weatherlink.com 1.10,2013-08-30 15:12:00,
2013-08-30 11:27:00,76.2,65.0,30.12,ENE,65,0.0,-999.0,68,-99.99,,,0.00,weatherlink.com 1.10,2013-08-30 15:27:00,
2013-08-30 11:43:00,76.5,66.0,30.12,NE,51,0.0,-999.0,69,-99.99,,,0.00,weatherlink.com 1.10,2013-08-30 15:43:00,
2013-08-30 11:58:00,77.1,65.0,30.12,NE,43,0.0,-999.0,67,-99.99,,,0.00,weatherlink.com 1.10,2013-08-30 15:58:00,
2013-08-30 12:13:00,79.1,66.0,30.11,ENE,59,0.0,-999.0,65,-99.99,,,0.00,weatherlink.com 1.10,2013-08-30 16:13:00,
2013-08-30 12:28:00,79.7,66.0,30.11,NE,54,0.0,-999.0,64,-99.99,,,0.00,weatherlink.com 1.10,2013-08-30 16:28:00,
2013-08-30 12:43:00,80.0,65.0,30.10,NE,40,0.0,-999.0,60,-99.99,,,0.00,weatherlink.com 1.10,2013-08-30 16:43:00,
2013-08-30 12:58:00,78.9,65.0,30.09,NNE,27,0.0,-999.0,62,-99.99,,,0.00,weatherlink.com 1.10,2013-08-30 16:58:00,
2013-08-30 13:13:00,78.8,66.0,30.09,NNE,31,0.0,-999.0,65,-99.99,,,0.00,weatherlink.com 1.10,2013-08-30 17:13:00,
2013-08-30 13:28:00,78.5,67.0,30.09,NNE,31,0.0,-999.0,67,-99.99,,,0.00,weatherlink.com 1.10,2013-08-30 17:28:00,
2013-08-30 13:43:00,78.5,66.0,30.09,NE,34,0.0,-999.0,66,-99.99,,,0.00,weatherlink.com 1.10,2013-08-30 17:43:00,
2013-08-30 13:58:00,79.3,65.0,30.08,NE,34,0.0,-999.0,62,-99.99,,,0.00,weatherlink.com 1.10,2013-08-30 17:58:00,
2013-08-30 14:13:00,81.2,67.0,30.08,ENE,60,0.0,-999.0,62,-99.99,,,0.01,weatherlink.com 1.10,2013-08-30 18:13:00,
2013-08-30 14:29:00,79.0,65.0,30.08,NNE,32,0.0,-999.0,62,-99.99,,,0.01,weatherlink.com 1.10,2013-08-30 18:29:00,
2013-08-30 14:44:00,80.5,65.0,30.07,NE,35,0.0,-999.0,59,-99.99,,,0.01,weatherlink.com 1.10,2013-08-30 18:44:00,
2013-08-30 14:59:00,81.5,65.0,30.06,ENE,61,0.0,-999.0,58,-99.99,,,0.01,weatherlink.com 1.10,2013-08-30 18:59:00,
2013-08-30 15:14:00,80.5,67.0,30.04,NE,49,0.0,-999.0,63,-99.99,,,0.01,weatherlink.com 1.10,2013-08-30 19:14:00,
2013-08-30 15:29:00,80.1,67.0,30.04,ENE,63,0.0,-999.0,65,-99.99,,,0.01,weatherlink.com 1.10,2013-08-30 19:29:00,
2013-08-30 15:44:00,80.2,69.0,30.04,ENE,65,0.0,-999.0,68,-99.99,,,0.01,weatherlink.com 1.10,2013-08-30 19:44:00,
2013-08-30 15:59:00,81.4,69.0,30.03,ENE,57,0.0,-999.0,65,-99.99,,,0.01,weatherlink.com 1.10,2013-08-30 19:59:00,
2013-08-30 16:14:00,78.6,67.0,30.03,ENE,57,0.0,-999.0,68,-99.99,,,0.01,weatherlink.com 1.10,2013-08-30 20:14:00,
2013-08-30 16:29:00,80.6,68.0,30.02,ENE,66,0.0,-999.0,65,-99.99,,,0.01,weatherlink.com 1.10,2013-08-30 20:29:00,
2013-08-30 16:44:00,79.4,68.0,30.02,ENE,66,0.0,-999.0,68,-99.99,,,0.01,weatherlink.com 1.10,2013-08-30 20:44:00,
2013-08-30 16:59:00,78.2,67.0,30.01,ENE,66,0.0,-999.0,69,-99.99,,,0.01,weatherlink.com 1.10,2013-08-30 20:59:00,
2013-08-30 17:15:00,78.7,68.0,30.01,ENE,64,0.0,-999.0,69,-99.99,,,0.01,weatherlink.com 1.10,2013-08-30 21:15:00,
2013-08-30 17:30:00,77.5,68.0,30.01,NNE,28,0.0,-999.0,72,-99.99,,,0.01,weatherlink.com 1.10,2013-08-30 21:30:00,
2013-08-30 17:45:00,77.4,68.0,30.01,NNE,28,0.0,-999.0,73,-99.99,,,0.01,weatherlink.com 1.10,2013-08-30 21:45:00,
2013-08-30 18:00:00,77.9,68.0,30.01,NNE,28,0.0,-999.0,72,-99.99,,,0.01,weatherlink.com 1.10,2013-08-30 22:00:00,
2013-08-30 18:15:00,77.2,68.0,30.00,NNE,28,0.0,-999.0,72,-99.99,,,0.01,weatherlink.com 1.10,2013-08-30 22:15:00,
2013-08-30 18:30:00,77.3,68.0,30.00,NNE,28,0.0,-999.0,72,-99.99,,,0.01,weatherlink.com 1.10,2013-08-30 22:30:00,
2013-08-30 18:45:00,77.4,67.0,30.00,NNE,28,0.0,-999.0,71,-99.99,,,0.01,weatherlink.com 1.10,2013-08-30 22:45:00,
2013-08-30 19:00:00,76.7,67.0,30.00,NNE,28,0.0,-999.0,73,-99.99,,,0.01,weatherlink.com 1.10,2013-08-30 23:00:00,
2013-08-30 19:15:00,76.2,67.0,30.00,NNE,28,0.0,-999.0,73,-99.99,,,0.01,weatherlink.com 1.10,2013-08-30 23:15:00,
2013-08-30 19:30:00,75.9,67.0,30.01,NNE,28,0.0,-999.0,74,-99.99,,,0.01,weatherlink.com 1.10,2013-08-30 23:30:00,
2013-08-30 19:45:00,75.7,66.0,30.01,NNE,28,0.0,-999.0,73,-99.99,,,0.01,weatherlink.com 1.10,2013-08-30 23:45:00,
2013-08-30 20:00:00,75.3,66.0,30.01,NNE,28,0.0,-999.0,73,-99.99,,,0.01,weatherlink.com 1.10,2013-08-31 00:00:00,
2013-08-30 20:15:00,74.7,66.0,30.01,NNE,28,0.0,-999.0,74,-99.99,,,0.01,weatherlink.com 1.10,2013-08-31 00:15:00,
2013-08-30 20:31:00,74.2,65.0,30.02,NNE,28,0.0,-999.0,74,-99.99,,,0.01,weatherlink.com 1.10,2013-08-31 00:31:00,
2013-08-30 20:46:00,73.6,65.0,30.02,NNE,28,0.0,-999.0,75,-99.99,,,0.01,weatherlink.com 1.10,2013-08-31 00:46:00,
2013-08-30 21:01:00,73.3,66.0,30.02,NNE,28,0.0,-999.0,78,-99.99,,,0.01,weatherlink.com 1.10,2013-08-31 01:01:00,
2013-08-30 21:16:00,73.1,66.0,30.03,NNE,28,0.0,-999.0,79,-99.99,,,0.01,weatherlink.com 1.10,2013-08-31 01:16:00,
2013-08-30 21:31:00,72.8,66.0,30.02,NNE,28,0.0,-999.0,78,-99.99,,,0.01,weatherlink.com 1.10,2013-08-31 01:31:00,
2013-08-30 21:46:00,72.7,66.0,30.02,NNE,28,0.0,-999.0,80,-99.99,,,0.01,weatherlink.com 1.10,2013-08-31 01:46:00,
2013-08-30 22:01:00,72.4,66.0,30.03,NNE,28,0.0,-999.0,79,-99.99,,,0.01,weatherlink.com 1.10,2013-08-31 02:01:00,
2013-08-30 22:16:00,72.4,66.0,30.02,NNE,28,0.0,-999.0,81,-99.99,,,0.01,weatherlink.com 1.10,2013-08-31 02:16:00,
2013-08-30 22:31:00,72.5,67.0,30.02,NNE,29,0.0,-999.0,82,-99.99,,,0.01,weatherlink.com 1.10,2013-08-31 02:31:00,
2013-08-30 22:46:00,72.5,67.0,30.03,NNE,29,0.0,-999.0,82,-99.99,,,0.01,weatherlink.com 1.10,2013-08-31 02:46:00,
2013-08-30 23:01:00,72.4,66.0,30.02,NNE,29,0.0,-999.0,81,-99.99,,,0.01,weatherlink.com 1.10,2013-08-31 03:01:00,
2013-08-30 23:16:00,72.3,66.0,30.02,NNE,29,0.0,-999.0,81,-99.99,,,0.01,weatherlink.com 1.10,2013-08-31 03:16:00,
2013-08-30 23:31:00,72.0,66.0,30.02,NNE,29,0.0,-999.0,81,-99.99,,,0.01,weatherlink.com 1.10,2013-08-31 03:31:00,
2013-08-30 23:46:00,71.6,65.0,30.02,NNE,29,0.0,-999.0,80,-99.99,,,0.01,weatherlink.com 1.10,2013-08-31 03:46:00,